Regional Weather Roundup
Issued by NWS

Home | Current Version | Previous Version | Text Only | Print | Product List | Glossary On
Versions: 1 2 3 4 5 6 7 8 9 10 11 12 13 14 15 16 17 18 19 20 21 22 23 24 25 26 27 28 29 30 31 32 33 34 35 36 37 38 39 40 41 42 43 44 45 46 47 48 49 50
755
ASUS45 KPSR 241210
RWRAZ

ARIZONA HOURLY REGIONAL WEATHER ROUNDUP
NATIONAL WEATHER SERVICE PHOENIX AZ
500 AM MST TUE MAY 24 2016

NOTE: FAIR INDICATES FEW OR NO CLOUDS BELOW 12,000 FEET WITH NO
SIGNIFICANT WEATHER AND/OR OBSTRUCTIONS TO VISIBILITY.

AZZ001>003-036-241300-
NORTHWEST ARIZONA

CITY           SKY/WX    TMP DP  RH WIND       PRES   REMARKS
BULLHEAD CITY  CLEAR     72  36  26 SW12      29.76R
KINGMAN        CLEAR     56  28  34 SE7       29.82R
6HR MIN TEMP:  53; 6HR MAX TEMP:  64;

$$

AZZ004>008-015-016-018-241300-
NORTH CENTRAL ARIZONA

CITY           SKY/WX    TMP DP  RH WIND       PRES   REMARKS
GRAND CANYON   PTCLDY    35  20  54 NE5       29.97R WCI  31
6HR MIN TEMP:  35; 6HR MAX TEMP:  50;

WILLIAMS       PTCLDY    46  23  39 S12       30.03S
PRESCOTT       CLEAR     48  26  42 S5        29.93R
6HR MIN TEMP:  47; 6HR MAX TEMP:  55;

FLAGSTAFF      CLEAR     31  22  69 CALM      29.98R
6HR MIN TEMP:  31; 6HR MAX TEMP:  43;

PAYSON         CLEAR     52  18  25 CALM      29.98R
PAGE           MOCLDY    61  23  23 S7        29.84R
6HR MIN TEMP:  60; 6HR MAX TEMP:  70;

$$

AZZ009>014-017-241300-
NORTHEAST ARIZONA

CITY           SKY/WX    TMP DP  RH WIND       PRES   REMARKS
WINSLOW        CLEAR     44  23  43 S6        29.94R
6HR MIN TEMP:  42; 6HR MAX TEMP:  55;

SAINT JOHNS    CLEAR     43  29  57 S5        29.98S
6HR MIN TEMP:  42; 6HR MAX TEMP:  55;

WINDOW ROCK    CLEAR     36  19  50 CALM      30.03R
6HR MIN TEMP:  35; 6HR MAX TEMP:  53;

SHOW LOW       CLEAR     41  19  42 SE7       30.01S
$$

AZZ023-241300-
GREATER PHOENIX AREA

CITY           SKY/WX    TMP DP  RH WIND       PRES   REMARKS
PHOENIX        CLEAR     68  30  24 CALM      29.82R
6HR MIN TEMP:  68; 6HR MAX TEMP:  78;

BUCKEYE        PTCLDY    63  28  27 CALM      29.84R
LUKE AFB       CLEAR     68  31  25 SW7       29.81R
6HR MIN TEMP:  66; 6HR MAX TEMP:  77;

DEER VALLEY    CLEAR     66  27  23 SE6       29.83R
6HR MIN TEMP:  65; 6HR MAX TEMP:  78;

SCOTTSDALE     CLEAR     65  30  27 CALM      29.85R
6HR MIN TEMP:  65; 6HR MAX TEMP:  78;

MESA-GATEWAY   CLEAR     61  28  29 E6        29.85R
$$

AZZ027-028-241300-
SOUTHWEST MARICOPA COUNTY AND PINAL COUNTY

CITY           SKY/WX    TMP DP  RH WIND       PRES   REMARKS
CASA GRANDE    CLEAR     59  27  29 CALM      29.85R
6HR MIN TEMP:  59; 6HR MAX TEMP:  73;

GILA BEND      FAIR      62  28  28 SW3       29.81R
6HR MIN TEMP:  60; 6HR MAX TEMP:  74;

$$

AZZ503-504-507>509-241300-
SOUTHEAST ARIZONA

CITY           SKY/WX    TMP DP  RH WIND       PRES   REMARKS
TUCSON         CLEAR     63  23  21 SE7       29.91R
6HR MIN TEMP:  62; 6HR MAX TEMP:  75;

DAVIS-MONTHAN  CLEAR     57  24  27 SE3       29.89R
6HR MIN TEMP:  57; 6HR MAX TEMP:  72;

NOGALES        CLEAR     56  23  27 S5        29.96R
6HR MIN TEMP:  56; 6HR MAX TEMP:  64;

SIERRA VISTA   CLEAR     63   8  11 S10       29.99R
6HR MIN TEMP:  63; 6HR MAX TEMP:  68;

DOUGLAS        CLEAR     72  26  18 SE7       29.98R
6HR MIN TEMP:  57; 6HR MAX TEMP:  72;

SAFFORD        CLEAR     56  23  27 SE6       29.89S
6HR MIN TEMP:  56; 6HR MAX TEMP:  73;

$$

AZZ020-021-025-026-031-241300-
SOUTHWEST ARIZONA

CITY           SKY/WX    TMP DP  RH WIND       PRES   REMARKS
YUMA           CLEAR     63  35  35 NW7       29.81R
6HR MIN TEMP:  62; 6HR MAX TEMP:  72;

$$

CAZ031-033-041-043-047-048-061-241300-
SOUTHERN CALIFORNIA

CITY           SKY/WX    TMP DP  RH WIND       PRES   REMARKS
DOWNTOWN L.A.  CLOUDY    59  52  77 CALM      29.92S
6HR MIN TEMP:  58; 6HR MAX TEMP:  61;

L.A. AIRPORT   LGT RAIN  58  52  80 CALM      29.93S
6HR MIN TEMP:  58; 6HR MAX TEMP:  59; 6HR PCP: TRACE;

SAN DIEGO      MOCLDY    63  50  62 W9        29.96S
6HR MIN TEMP:  63; 6HR MAX TEMP:  64;

BURBANK        MOCLDY    56  50  80 S5        29.92R
6HR MIN TEMP:  56; 6HR MAX TEMP:  60;

ONTARIO        MOCLDY    56  47  71 W7        29.93R
6HR MIN TEMP:  55; 6HR MAX TEMP:  58;

RIVERSIDE      CLOUDY    58  47  66 SW5       29.93S
6HR MIN TEMP:  56; 6HR MAX TEMP:  58;

PALM SPRINGS     N/A     64  42  44 MISG      29.81R
6HR MIN TEMP:  63; 6HR MAX TEMP:  70;

EL CENTRO NAS  CLEAR     62  40  44 W32       29.84R
6HR MIN TEMP:  62; 6HR MAX TEMP:  69;

IMPERIAL       CLEAR     62  41  46 W18G26    29.82R
6HR MIN TEMP:  62; 6HR MAX TEMP:  69;

BLYTHE         CLEAR     66  46  48 E3        29.77R
6HR MIN TEMP:  66; 6HR MAX TEMP:  78;

NEEDLES        CLEAR     70  37  29 SW7       29.75R
6HR MIN TEMP:  70; 6HR MAX TEMP:  79;

$$

NVZ020-UTZ003-241300-
SOUTHERN NEVADA-UTAH

CITY           SKY/WX    TMP DP  RH WIND       PRES   REMARKS
LAS VEGAS      PTCLDY    63  37  38 S9G20     29.71R
6HR MIN TEMP:  63; 6HR MAX TEMP:  73;

SALT LAKE CITY MOCLDY    53  42  66 S10       29.80F
6HR MIN TEMP:  51; 6HR MAX TEMP:  55;

$$

NMZ009-TXZ055-241300-
NEW MEXICO-WEST TEXAS

CITY           SKY/WX    TMP DP  RH WIND       PRES   REMARKS
ALBUQUERQUE    CLEAR     53  20  27 CALM      29.99R
6HR MIN TEMP:  53; 6HR MAX TEMP:  61;

EL PASO        CLEAR     69  20  15 S3        29.95R
6HR MIN TEMP:  68; 6HR MAX TEMP:  80;

$$


........................KEY........................
SKY/WX - SKY CONDITION/WEATHER
TMP    - TEMPERATURE IN FAHRENHEIT
DP     - DEW POINT IN FAHRENHEIT
RH     - RELATIVE HUMIDITY IN PERCENT
WIND   - DIRECTION AND SPEED IN MILES PER HOUR (MPH)
VRB    - VARIABLE WIND DIRECTION
PRES   - MEAN SEA LEVEL PRESSURE IN INCHES OF MERCURY
         F - FALLING PRESSURE   R - RISING PRESSURE
         S - STEADY PRESSURE
VSB    - VISIBILITY IN MILES
HX     - HEAT INDEX IN FAHRENHEIT
WCI    - WIND CHILL INDEX IN FAHRENHEIT
TC     - TEMPERATURE IN CELSIUS WHICH IS ALSO KNOWN AS
         TEMPERATURE IN CENTIGRADE
AFB    - AIR FORCE BASE
         LUKE AFB IS LUKE AIR FORCE BASE
         DAVIS-MONTHAN IS DAVIS-MONTHAN AIR FORCE BASE
NAS    - NAVAL AIR STATION
         EL CENTRO NAS IS EL CENTRO NAVAL AIR STATION
N/A    - NOT AVAILABLE





USA.gov is the U.S. government's official web portal to all federal, state and local government web resources and services.